Weather reports worldwide

Advertisment
Yecla, Spain (8356): temperature & dewpoint: 13.07.2018 13:00:00 - 19.07.2018 13:00:00 (CEST)Yecla, Spain (8356): wind speed & gusts: 13.07.2018 13:00:00 - 19.07.2018 13:00:00 (CEST)Yecla, Spain (8356): wind direction: 13.07.2018 13:00:00 - 19.07.2018 13:00:00 (CEST)Yecla, Spain (8356): reduced air pressure: 13.07.2018 13:00:00 - 19.07.2018 13:00:00 (CEST)Yecla, Spain (8356): visibility: 13.07.2018 13:00:00 - 19.07.2018 13:00:00 (CEST)Yecla, Spain (8356): sunshine duration: 13.07.2018 13:00:00 - 19.07.2018 13:00:00 (CEST)Yecla, Spain (8356): precipitation: 13.07.2018 13:00:00 - 19.07.2018 13:00:00 (CEST)
Date & Time tt [°C] td [°C] ff [km/h] ff [kn] fx [km/h] fx [kn] dd ppp [hPa] vv [km] sd [min] rr [mm]
19.07.2018 13:00:00 32,7 7,6 8 4 19 10 S 1012,6 20 60 0,0
19.07.2018 12:00:00 31,2 9,4 7 4 13 7 E 1013,2 20 60 0,0
19.07.2018 11:00:00 28,3 10,9 8 4 13 7 S 1014,1 19 60 0,0
19.07.2018 10:00:00 25,6 12,4 3 1 8 4 ESE 1014,2 20 60 0,0
19.07.2018 09:00:00 21,2 11,8 3 2 6 3 SSE 1015,5 16 60 0,0
19.07.2018 08:00:00 16,6 11,6 1 1 5 3 S 1016,7 17 43 -
19.07.2018 07:00:00 15,6 10,8 2 1 8 5 SSW 1016,8 20 0 0,0
19.07.2018 06:00:00 16,3 10,8 5 3 13 7 W 1016,3 20 0 0,0
19.07.2018 05:00:00 15,9 10,4 4 2 10 5 WSW 1016,5 20 0 0,0
19.07.2018 04:00:00 17,3 10,9 7 4 10 5 W 1016,3 20 0 0,0
19.07.2018 03:00:00 18,4 11,4 3 2 8 4 S 1015,9 20 0 0,0
19.07.2018 02:00:00 19,1 11,1 2 1 7 4 W 1015,9 20 0 -
19.07.2018 01:00:00 20,8 12,2 4 2 14 8 W 1015,7 20 0 0,0
19.07.2018 00:00:00 21,8 13,0 11 6 14 8 WSW 1015,2 20 0 0,0
18.07.2018 23:00:00 22,7 12,0 5 3 13 7 WSW 1014,9 20 0 0,0
18.07.2018 22:00:00 25,0 11,6 9 5 22 12 SSW 1013,4 20 0 0,0
18.07.2018 21:00:00 27,2 9,9 16 9 26 14 SW 1012,3 20 37 0,0
18.07.2018 20:00:00 30,0 8,9 16 8 27 15 S 1011,5 19 60 -
18.07.2018 19:00:00 32,0 8,3 15 8 26 14 SE 1010,7 20 60 0,0
18.07.2018 18:00:00 32,8 7,6 11 6 30 16 SE 1010,9 20 60 0,0
18.07.2018 17:00:00 32,9 7,7 11 6 29 15 SSE 1011,1 20 60 0,0
18.07.2018 16:00:00 31,9 8,3 7 4 24 13 ENE 1011,8 20 60 0,0
18.07.2018 15:00:00 31,6 7,3 12 6 24 13 SE 1012,6 20 60 0,0
18.07.2018 14:00:00 30,5 8,3 8 4 20 11 S 1013,5 19 60 -
18.07.2018 13:00:00 29,3 8,9 9 5 22 12 ESE 1014,5 20 60 0,0
18.07.2018 12:00:00 27,3 8,7 7 4 14 8 E 1015,3 20 60 0,0
18.07.2018 11:00:00 25,7 9,0 5 3 16 8 NE 1015,5 20 60 0,0
18.07.2018 10:00:00 24,0 12,6 4 2 10 6 ENE 1015,8 20 60 0,0
18.07.2018 09:00:00 19,8 12,7 5 3 9 5 E 1016,3 15 24 0,0
18.07.2018 08:00:00 17,2 10,0 4 2 8 5 W 1016,7 9 0 -
18.07.2018 07:00:00 15,6 8,1 4 2 13 7 SW 1016,7 20 0 0,0
18.07.2018 06:00:00 17,3 8,1 4 2 11 6 W 1016,2 20 0 0,0
18.07.2018 05:00:00 17,1 7,7 7 4 11 6 WSW 1016,4 20 0 0,0
18.07.2018 04:00:00 18,2 7,3 5 3 13 7 WSW 1016,3 20 0 0,0
18.07.2018 03:00:00 18,0 6,5 3 2 6 3 SW 1017,1 20 0 0,0
18.07.2018 02:00:00 18,4 5,9 2 1 5 3 WSW 1016,7 20 0 -
18.07.2018 01:00:00 19,3 5,8 4 2 7 4 SW 1016,8 20 0 0,0
18.07.2018 00:00:00 20,6 5,5 4 2 10 6 W 1016,6 20 0 0,0
17.07.2018 23:00:00 23,5 5,5 4 2 14 8 WSW 1015,9 20 0 0,0
17.07.2018 22:00:00 24,6 5,9 9 5 19 10 S 1015,0 20 0 0,0
17.07.2018 21:00:00 26,4 5,9 10 6 26 14 SSE 1014,2 20 36 0,0
17.07.2018 20:00:00 28,6 6,1 15 8 27 15 SE 1013,3 20 60 -
17.07.2018 19:00:00 29,9 6,5 - - - - - 1013,0 20 60 0,0
17.07.2018 18:00:00 30,8 6,7 15 8 26 14 SSE 1013,2 19 60 0,0
17.07.2018 17:00:00 31,4 7,1 12 7 30 16 SE 1013,5 20 60 0,0
17.07.2018 16:00:00 31,3 7,7 16 9 33 18 SE 1013,8 20 60 0,0
17.07.2018 15:00:00 31,3 6,4 19 11 - - ESE 1014,3 20 60 0,0
17.07.2018 14:00:00 32,0 4,6 12 7 29 16 S 1014,5 20 60 -
17.07.2018 13:00:00 31,0 2,3 12 6 26 14 S 1015,3 20 60 0,0
17.07.2018 12:00:00 30,4 2,7 11 6 25 13 S 1015,5 20 60 0,0
17.07.2018 11:00:00 28,5 4,1 8 4 17 9 SSE 1016,2 17 60 0,0
17.07.2018 10:00:00 25,3 11,4 5 3 14 8 NE 1017,0 20 60 0,0
17.07.2018 09:00:00 23,4 11,8 5 3 10 5 E 1017,2 20 60 0,0
17.07.2018 08:00:00 18,2 9,8 3 2 8 4 SSW 1018,5 20 44 -
17.07.2018 07:00:00 16,0 7,0 6 3 7 4 WSW 1018,9 20 0 0,0
17.07.2018 06:00:00 15,9 5,0 2 1 10 5 SSW 1018,5 20 0 0,0
17.07.2018 05:00:00 16,3 3,9 4 2 10 5 W 1018,5 20 0 0,0
17.07.2018 04:00:00 17,6 3,4 3 2 9 5 SW 1017,9 20 0 0,0
17.07.2018 03:00:00 18,7 3,8 4 2 8 5 SSW 1018,0 20 0 0,0
17.07.2018 02:00:00 20,8 3,0 2 1 17 9 WNW 1017,5 20 0 -
17.07.2018 01:00:00 22,2 2,9 5 3 12 7 N 1017,2 13 0 0,0
17.07.2018 00:00:00 25,8 2,5 6 3 16 9 WNW 1016,2 20 0 0,0
16.07.2018 23:00:00 26,4 1,7 7 4 18 10 W 1015,6 20 0 0,0
16.07.2018 22:00:00 26,3 2,3 3 1 9 5 NW 1015,1 20 0 0,0
16.07.2018 21:00:00 29,0 1,5 4 2 24 13 SSW 1014,0 20 37 0,0
16.07.2018 20:00:00 31,0 1,3 8 5 31 17 N 1013,2 20 60 -
16.07.2018 19:00:00 31,0 1,3 17 9 46 25 WSW 1013,1 20 60 0,0
16.07.2018 18:00:00 31,7 0,9 16 9 - - W 1013,4 20 60 0,0
16.07.2018 17:00:00 31,9 2,1 15 8 43 23 W 1013,6 20 60 0,0
16.07.2018 16:00:00 31,2 3,2 18 10 - - W 1013,9 16 60 0,0
16.07.2018 15:00:00 30,1 4,6 19 10 45 24 W 1014,5 20 60 0,0
16.07.2018 14:00:00 28,9 5,0 16 9 46 25 W 1014,9 20 60 -
16.07.2018 13:00:00 28,1 5,6 20 11 51 28 W 1015,3 20 60 0,0
16.07.2018 12:00:00 26,1 5,6 23 12 49 26 W 1015,3 20 60 0,0
16.07.2018 11:00:00 24,3 7,4 25 13 49 26 W 1015,9 20 60 0,0
16.07.2018 10:00:00 22,8 7,3 24 13 51 28 W 1016,0 17 60 0,0
16.07.2018 09:00:00 21,0 8,0 28 15 53 29 W 1016,2 20 60 0,0
16.07.2018 08:00:00 19,8 7,6 25 14 52 28 W 1016,5 20 51 -
16.07.2018 07:00:00 20,0 6,7 37 20 67 36 W 1015,8 20 0 0,0
16.07.2018 06:00:00 20,3 6,2 25 14 47 26 W 1015,2 20 0 0,0
16.07.2018 05:00:00 21,0 5,8 29 15 59 32 W 1014,7 20 0 0,0
16.07.2018 04:00:00 21,8 6,8 32 17 58 31 W 1014,6 20 0 0,0
16.07.2018 03:00:00 22,4 6,2 28 15 55 30 W 1014,8 20 0 0,0
16.07.2018 02:00:00 23,7 5,1 34 18 53 29 W 1014,3 20 0 -
16.07.2018 01:00:00 25,3 0,6 29 16 50 27 WNW 1013,7 20 0 0,0
16.07.2018 00:00:00 26,3 -0,7 18 10 51 27 W 1013,1 20 0 0,0
15.07.2018 23:00:00 27,9 0,6 24 13 44 24 W 1012,3 20 0 0,0
15.07.2018 22:00:00 28,8 2,1 8 5 24 13 W 1011,4 20 0 0,0
15.07.2018 21:00:00 29,5 9,6 8 4 20 11 SW 1011,0 20 26 0,0
15.07.2018 20:00:00 31,2 8,3 15 8 28 15 S 1009,5 20 46 -
15.07.2018 19:00:00 32,3 7,1 15 8 33 18 SSW 1009,5 20 52 0,0
15.07.2018 18:00:00 33,0 8,4 18 10 34 19 S 1010,0 20 45 0,0
15.07.2018 17:00:00 33,9 10,5 21 11 36 20 SSE 1009,8 19 58 0,0
15.07.2018 16:00:00 36,2 3,4 15 8 37 20 SSW 1009,8 20 49 0,0
15.07.2018 15:00:00 34,7 3,2 8 4 26 14 ESE 1010,5 20 58 0,0
15.07.2018 14:00:00 34,2 3,9 15 8 - - SW 1011,9 20 60 -
15.07.2018 13:00:00 32,7 5,3 8 5 24 13 S 1013,0 20 60 0,0
15.07.2018 12:00:00 31,1 6,2 6 3 18 10 SW 1013,8 20 60 0,0
15.07.2018 11:00:00 28,5 8,3 4 2 21 12 WSW 1014,8 20 60 0,0
15.07.2018 10:00:00 26,5 7,6 14 7 35 19 NNW 1015,8 20 60 0,0
15.07.2018 09:00:00 24,7 7,8 24 13 46 25 NNW 1015,9 20 57 0,0
15.07.2018 08:00:00 24,2 8,1 26 14 43 23 NNW 1015,4 20 0 -
15.07.2018 07:00:00 23,8 9,8 18 10 39 21 NNW 1015,6 20 0 0,0
15.07.2018 06:00:00 20,3 12,5 6 3 14 7 E 1016,3 20 0 0,0
15.07.2018 05:00:00 19,3 13,7 3 2 10 5 W 1016,8 20 0 0,0
15.07.2018 04:00:00 19,5 13,3 2 1 5 3 SW 1016,6 20 0 0,0
15.07.2018 03:00:00 20,4 13,9 5 3 14 7 SW 1016,5 20 0 0,0
15.07.2018 02:00:00 21,1 14,0 7 4 10 5 W 1016,6 20 0 -
15.07.2018 01:00:00 22,6 14,4 4 2 8 4 SW 1016,3 20 0 0,0
15.07.2018 00:00:00 24,4 14,8 7 4 13 7 WSW 1016,0 20 0 0,0
14.07.2018 23:00:00 25,5 14,6 5 3 16 9 SW 1015,5 20 0 0,0
14.07.2018 22:00:00 27,5 14,8 12 6 21 11 SSW 1013,8 20 0 0,0
14.07.2018 21:00:00 30,0 12,8 14 8 25 14 SSW 1012,9 20 36 0,0
14.07.2018 20:00:00 32,2 12,4 16 9 - - SSW 1012,1 18 60 -
14.07.2018 19:00:00 33,5 11,9 18 10 32 18 SW 1011,8 20 60 0,0
14.07.2018 18:00:00 34,9 10,0 14 8 29 15 SSW 1012,0 20 60 0,0
14.07.2018 17:00:00 35,2 8,9 11 6 31 17 W 1012,1 20 59 0,0
14.07.2018 16:00:00 34,7 9,8 14 8 28 15 SSW 1012,8 18 60 0,0
14.07.2018 15:00:00 33,6 7,6 12 7 27 14 SSE 1013,6 20 60 0,0
14.07.2018 14:00:00 32,6 10,0 12 6 28 15 S 1014,5 20 60 -
14.07.2018 13:00:00 31,5 11,3 5 3 19 10 SE 1014,9 19 60 0,0
14.07.2018 12:00:00 29,9 11,4 8 5 19 10 SE 1015,7 20 60 0,0
14.07.2018 11:00:00 27,6 11,6 6 4 13 7 N 1016,2 20 60 0,0
14.07.2018 10:00:00 24,8 17,1 5 3 9 5 E 1016,6 20 60 0,0
14.07.2018 09:00:00 21,8 17,0 5 3 8 5 ENE 1017,2 18 60 0,0
14.07.2018 08:00:00 18,2 16,4 0 0 10 6 N 1017,7 14 35 -
14.07.2018 07:00:00 16,7 14,9 8 4 10 5 W 1017,6 12 0 0,0
14.07.2018 06:00:00 17,5 15,5 3 1 8 4 N 1017,1 12 0 0,0
14.07.2018 05:00:00 18,2 15,6 6 4 9 5 WSW 1017,0 14 0 0,0
14.07.2018 04:00:00 18,9 16,0 7 4 10 6 WSW 1017,2 16 0 0,0
14.07.2018 03:00:00 19,6 16,5 6 3 9 5 W 1017,2 17 0 0,0
14.07.2018 02:00:00 20,8 17,4 5 3 11 6 NNE 1017,2 18 0 -
14.07.2018 01:00:00 21,3 17,5 8 4 12 7 NNE 1017,2 18 0 0,0
14.07.2018 00:00:00 22,2 17,5 8 5 14 8 NE 1016,8 20 0 0,0
13.07.2018 23:00:00 23,3 17,5 11 6 16 8 NE 1016,0 20 0 0,0
13.07.2018 22:00:00 24,2 15,2 8 4 16 8 SSE 1014,9 20 0 0,0
13.07.2018 21:00:00 26,0 14,1 11 6 24 13 SE 1014,0 20 24 0,0
13.07.2018 20:00:00 26,6 15,3 16 9 26 14 E 1013,6 20 23 -
13.07.2018 19:00:00 27,3 16,6 17 9 29 16 ENE 1013,2 20 32 0,0
13.07.2018 18:00:00 28,5 16,4 20 11 33 18 ENE 1013,1 19 27 0,0
13.07.2018 17:00:00 29,5 16,0 19 10 36 19 ENE 1012,6 20 55 0,0
13.07.2018 16:00:00 29,4 16,2 19 10 36 19 ENE 1012,9 18 28 0,0
13.07.2018 15:00:00 28,3 15,6 20 11 34 19 NE 1013,4 20 8 0,0
13.07.2018 14:00:00 28,8 15,3 16 9 36 20 ENE 1013,5 17 41 -
13.07.2018 13:00:00 28,6 15,5 22 12 35 19 NE 1013,7 20 60 0,0

tt = temperature
td = dewpoint
ff = wind speed
fx = gusts
dd = wind direction
ppp = reduced air pressure
vv = visibility
sd = sunshine duration
rr = precipitation

Next stations